Location: Zagreb
(45.8000°N, 16.0000°E)
Time: 09:12:25
(UTC+02:00)

Courier 1B Rocket - Pass Details

Date: 14 August 2022
Orbit: 920 x 1202 km, 28.2° (Epoch: 25 September)

Event Time Altitude Azimuth Distance (km) Brightness Sun altitude
Rises 17:15:04 0° 229° (SW) 3,543 8.8 28.5°
Reaches altitude 10° 17:18:53 10° 206° (SSW) 2,605 7.8 27.8°
Maximum altitude 17:22:10 15° 174° (S) 2,293 7.1 27.2°
Drops below altitude 10° 17:25:29 10° 142° (SE) 2,645 7.1 26.7°
Sets 17:29:25 0° 120° (ESE) 3,632 7.5 26.0°
